{"data":{"norad_id":53966,"epoch":"2026-09-20T03:49:30.820800Z","epoch_age_seconds":116435,"freshness":"FRESH","line1":"1 53966U 22125C   26263.15938450  .00001812  00000+0  64783-4 0  9998","line2":"2 53966  53.1610  63.2207 0001322  89.3190 270.7964 15.34389234218788","mean_motion":15.34389234,"eccentricity":0.0001322,"inclination_deg":53.161,"raan_deg":63.2207,"arg_perigee_deg":89.319,"mean_anomaly_deg":270.7964,"bstar":6.4783e-5,"rev_number":21878,"period_min":93.848416561557,"perigee_km":461.83087590501,"apogee_km":463.63960252506,"semimajor_km":6840.872239215,"source":"CELESTRAK","updated_at":"2026-09-21T09:00:33.039194Z"}}